Location: Gull Harbor
(47.1000°N, 122.9000°W)
Time: 00:52:54
(UTC-07:00)

Envisat - Visible Passes

Search period start: 23 September 2023 00:00
Search period end: 03 October 2023 00:00
Orbit: 763 x 764 km, 98.2° (Epoch: 22 September)

Date Brightness Start Highest point End Pass type
(mag) Time Alt. Az. Time Alt. Az. Time Alt. Az.
23 Sep 5.3 03:46:03 10° NE 03:49:38 19° E 03:53:07 10° SE visible
23 Sep 3.0 05:24:01 10° N 05:29:03 61° WNW 05:33:16 14° SSW visible
24 Sep 3.3 04:46:47 10° NNE 04:51:51 65° ESE 04:55:32 19° S visible
24 Sep 4.4 06:26:45 10° NNW 06:30:21 20° WNW 06:33:58 10° WSW visible
25 Sep 4.6 04:09:58 10° NNE 04:14:28 31° E 04:17:47 16° SSE visible
25 Sep 3.5 05:48:50 10° N 05:53:31 38° WNW 05:57:57 11° SW visible
26 Sep 5.6 03:34:02 10° NE 03:36:52 15° E 03:39:41 10° ESE visible
26 Sep 2.9 05:11:22 10° NNE 05:16:27 78° WNW 05:20:12 19° SSW visible
27 Sep 3.7 04:34:16 10° NNE 04:39:13 50° E 04:42:27 21° SSE visible
27 Sep 4.1 06:13:50 10° N 06:17:54 25° WNW 06:21:56 10° WSW visible
28 Sep 5.0 03:57:38 10° NE 04:01:45 24° E 04:04:41 15° SE visible
28 Sep 3.2 05:36:06 10° N 05:40:59 48° WNW 05:44:51 16° SW visible
29 Sep 5.8 03:22:32 10° ENE 03:24:05 11° E 03:25:38 10° ESE visible
29 Sep 3.0 04:58:45 10° NNE 05:03:51 83° ESE 05:07:05 23° S visible
30 Sep 4.2 04:21:46 10° NNE 04:26:32 39° E 04:29:20 22° SSE visible
30 Sep 3.8 06:01:00 10° N 06:05:24 30° WNW 06:09:29 11° WSW visible
01 Oct 5.3 03:45:25 10° NE 03:49:00 19° E 03:51:34 14° SE visible
01 Oct 3.0 05:23:24 10° N 05:28:25 61° WNW 05:31:43 21° SW visible
02 Oct 3.3 04:46:10 10° NNE 04:51:14 65° ESE 04:53:58 27° S visible
02 Oct 4.4 06:26:07 10° NNW 06:29:44 20° WNW 06:33:20 10° WSW visible
